User: anonymous   Login
Location: Unspecified
(0.0000°N, 0.0000°E)
Time: 17:05:06
(UTC+00:00)
Language:

WISE - Orbit

View from above orbital plane
View from above orbital plane
View from above satellite
View from above satellite

Ground track
Ground track

The orbit data is extracted from the following two-line orbital elements,

1 36119U 09071A   18347.64496906  .00000610  00000-0  24053-4 0  9999
2 36119  97.3949  19.1201 0002992 151.6637 208.4766 15.29345472499465
Epoch (UTC): 13 December 2018 15:28:45
Eccentricity: 0.0002992
inclination: 97.3949°
perigee height: 476 km
apogee height: 480 km
right ascension of ascending node: 19.1201°
argument of perigee: 151.6637°
revolutions per day: 15.29345472
mean anomaly at epoch: 208.4766°
orbit number at epoch: 49946

The dashed part of the orbit path shows where the satellite is in the earth's shadow,  

DLR